Tracking 18850 objects as of 22-Nov-2017
HD Live streaming from Space Station
objects crossing your sky now

COSMOS 1754

Track COSMOS 1754 now!
10-day predictions
COSMOS 1754 is classified as:


NORAD ID: 16764
Int'l Code: 1986-042G
Perigee: 1,445.3 km
Apogee: 1,476.5 km
Inclination: 74.0 °
Period: 115.0 minutes
Semi major axis: 7831 km
RCS: 0.7328 m2 (medium)
Launch date: June 6, 1986
Source: Commonwealth of Independent States (former USSR) (CIS)
Launch site: PLESETSK MISSILE AND SPACE COMPLEX (PKMTR)
aabbcc
Your satellite tracking list
Your tracking list is empty




NASA's NSSDC Master Catalog

Two Line Element Set (TLE):
1 16764U 86042G   17326.62593139 -.00000011 +00000-0 +30498-4 0  9992
2 16764 074.0184 088.0099 0019932 051.5345 070.4632 12.52561721263422
Source of the keplerian elements: AFSPC